Thedford, NE

12:01 PM CDT on May 27, 2017 (GMT -0500)
Thedford

Weather History for KTIF - June, 2013

Change the Weather History Date:

Friday, June 21, 2013

  Actual Average (KANW) Record (KANW)
Temperature  
Mean Temperature 77 °F -  
Max Temperature 89 °F 77 °F 95 °F (2002)
Min Temperature 65 °F 54 °F 46 °F (2000)
Cooling Degree Days 12    
Growing Degree Days 27 (Base 50)    
Moisture  
Dew Point 62 °F    
Average Humidity 67    
Maximum Humidity 94    
Minimum Humidity 36    
Precipitation  
Precipitation 0.08 in - - ()
Sea Level Pressure  
Sea Level Pressure 29.83 in    
Wind  
Wind Speed 5 mph (ENE)    
Max Wind Speed 22 mph    
Max Gust Speed 33 mph    
Visibility 8 miles    
Events Rain , Thunderstorm    
Averages and records for this station are not official NWS values.
T = Trace of Precipitation, MM = Missing Value Source: NWS Daily Summary

Daily Weather History Graph

Daily Weather History Graph

Search for Another Location

Airport or City:

Trip Planner

Search our weather history database for the weather conditions in past years. The results will help you decide how hot, cold, wet, or windy it might be!

Date:

Astronomy

Jun. 21, 2013 Rise Set
Actual Time 6:07 AM CDT 9:21 PM CDT
Civil Twilight 5:32 AM CDT 9:55 PM CDT
Nautical Twilight 4:48 AM CDT 10:40 PM CDT
Astronomical Twilight 3:54 AM CDT 11:33 PM CDT
Moon 7:32 PM CDT (6/21) 4:25 AM CDT (6/21)
Length of Visible Light 16h 23m
Length of Day
15h 14m
Waxing Gibbous, 95% of the Moon is Illuminated
Jun 21
Waxing Gibbous
Jun 23
Full
Jun 29
Last Quarter
Jul 8
New
Jul 15
First Quarter

Hourly Weather History & Observations

Time (CDT) Temp. Heat Index Dew Point Humidity Pressure Visibility Wind Dir Wind Speed Gust Speed Precip Events Conditions
12:15 AM 71.6 °F - 66.6 °F 84% 29.82 in 10.0 mi NE 4.6 mph - N/A   Clear
12:57 AM 69.8 °F - 66.2 °F 88% 29.81 in 10.0 mi ENE 5.8 mph - N/A   Clear
1:17 AM 71.6 °F - 66.2 °F 83% 29.83 in 10.0 mi Calm Calm - N/A   Clear
1:37 AM 69.8 °F - 66.2 °F 88% 29.82 in 10.0 mi Calm Calm - N/A   Clear
2:17 AM 66.2 °F - 64.4 °F 94% 29.80 in 5.0 mi Calm Calm - N/A   Clear
2:35 AM 68.2 °F - 65.7 °F 92% 29.81 in 7.0 mi Calm Calm - N/A   Clear
2:55 AM 68.0 °F - 65.1 °F 90% 29.81 in 7.0 mi Calm Calm - N/A   Clear
3:15 AM 68.0 °F - 65.3 °F 91% 29.81 in 7.0 mi Calm Calm - N/A   Clear
3:35 AM 67.5 °F - 64.6 °F 90% 29.82 in 7.0 mi WNW 3.5 mph - N/A   Clear
3:55 AM 66.4 °F - 63.9 °F 92% 29.80 in 5.0 mi NW 4.6 mph - N/A   Clear
4:15 AM 67.1 °F - 64.6 °F 92% 29.79 in 5.0 mi NW 8.1 mph - N/A   Clear
4:35 AM 67.3 °F - 64.8 °F 92% 29.79 in 5.0 mi WNW 3.5 mph - N/A   Clear
4:55 AM 66.6 °F - 64.2 °F 92% 29.79 in 5.0 mi NNW 3.5 mph - N/A   Clear
5:15 AM 67.3 °F - 64.8 °F 92% 29.80 in 7.0 mi Calm Calm - N/A   Clear
5:35 AM 66.6 °F - 64.0 °F 92% 29.80 in 7.0 mi Calm Calm - N/A   Clear
5:55 AM 65.5 °F - 62.8 °F 91% 29.81 in 5.0 mi North 3.5 mph - N/A   Clear
6:15 AM 66.0 °F - 63.3 °F 91% 29.81 in 3.0 mi NE 3.5 mph - N/A   Clear
6:35 AM 67.1 °F - 64.6 °F 92% 29.82 in 3.0 mi NE 3.5 mph - N/A   Mist
6:55 AM 67.5 °F - 65.3 °F 93% 29.82 in 3.0 mi ESE 3.5 mph - N/A   Mist
7:15 AM 67.1 °F - 64.8 °F 92% 29.81 in 2.5 mi Calm Calm - N/A   Mist
7:35 AM 68.0 °F - 65.5 °F 92% 29.80 in 3.0 mi Calm Calm - N/A   Clear
7:55 AM 68.4 °F - 65.8 °F 92% 29.81 in 4.0 mi Calm Calm - N/A   Clear
8:15 AM 69.4 °F - 66.6 °F 91% 29.81 in 5.0 mi East 3.5 mph - N/A   Clear
8:35 AM 70.7 °F - 67.1 °F 88% 29.81 in 7.0 mi East 5.8 mph - N/A   Clear
8:55 AM 71.8 °F - 67.1 °F 85% 29.81 in 7.0 mi ESE 4.6 mph - N/A   Clear
9:15 AM 73.0 °F - 66.9 °F 81% 29.80 in 10.0 mi ESE 5.8 mph - N/A   Clear
9:35 AM 74.3 °F - 66.4 °F 76% 29.80 in 10.0 mi SE 6.9 mph - N/A   Clear
9:55 AM 77.0 °F - 62.8 °F 61% 29.79 in 10.0 mi SE 10.4 mph 17.3 mph N/A   Clear
10:15 AM 77.9 °F - 60.8 °F 56% 29.79 in 10.0 mi SSE 16.1 mph - N/A   Clear
10:35 AM 77.9 °F - 58.5 °F 51% 29.78 in 10.0 mi SSE 13.8 mph - N/A   Clear
10:55 AM 77.5 °F - 57.7 °F 50% 29.79 in 10.0 mi SSE 13.8 mph 17.3 mph N/A   Clear
11:15 AM 76.3 °F - 57.4 °F 52% 29.79 in 10.0 mi SSE 11.5 mph - N/A   Clear
11:35 AM 75.4 °F - 58.1 °F 55% 29.79 in 10.0 mi SSE 10.4 mph - N/A   Clear
11:55 AM 75.4 °F - 58.8 °F 56% 29.80 in 10.0 mi South 5.8 mph - N/A   Clear
12:15 PM 76.1 °F - 57.9 °F 53% 29.79 in 10.0 mi SSE 11.5 mph - N/A   Clear
12:35 PM 76.5 °F - 57.2 °F 51% 29.79 in 10.0 mi SSE 9.2 mph - N/A   Clear
12:55 PM 77.9 °F - 57.4 °F 49% 29.80 in 10.0 mi SSE 4.6 mph - N/A   Clear
1:15 PM 79.0 °F - 57.6 °F 48% 29.81 in 10.0 mi Calm Calm - N/A   Clear
1:35 PM 80.6 °F 80.6 °F 56.3 °F 43% 29.82 in 10.0 mi SSE 6.9 mph - N/A   Clear
1:55 PM 81.9 °F 81.6 °F 56.7 °F 42% 29.84 in 10.0 mi North 5.8 mph - N/A   Clear
2:15 PM 82.2 °F 81.8 °F 56.3 °F 41% 29.84 in 10.0 mi NE 4.6 mph - N/A   Clear
2:35 PM 83.7 °F 83.0 °F 57.0 °F 40% 29.84 in 10.0 mi East 3.5 mph - N/A   Clear
2:55 PM 84.4 °F 83.2 °F 55.8 °F 37% 29.84 in 10.0 mi ENE 3.5 mph - N/A   Clear
3:15 PM 84.6 °F 83.9 °F 57.9 °F 40% 29.83 in 10.0 mi NE 4.6 mph - N/A   Clear
3:35 PM 85.1 °F 84.4 °F 58.1 °F 40% 29.81 in 10.0 mi NE 3.5 mph - N/A   Clear
3:55 PM 86.7 °F 85.6 °F 57.7 °F 37% 29.81 in 10.0 mi East 5.8 mph - N/A   Clear
4:15 PM 87.8 °F 86.7 °F 57.6 °F 36% 29.80 in 10.0 mi East 6.9 mph - N/A   Clear
4:35 PM 87.6 °F 86.9 °F 59.4 °F 38% 29.80 in 10.0 mi ENE 8.1 mph - N/A   Clear
4:55 PM 88.7 °F 88.3 °F 59.7 °F 38% 29.79 in 10.0 mi East 8.1 mph - N/A   Clear
5:15 PM 89.4 °F 89.0 °F 60.3 °F 37% 29.78 in 10.0 mi ENE 8.1 mph - N/A   Clear
5:35 PM 89.1 °F 89.0 °F 61.0 °F 39% 29.78 in 10.0 mi ENE 10.4 mph - N/A   Clear
5:55 PM 88.0 °F 88.1 °F 61.9 °F 41% 29.78 in 10.0 mi NE 9.2 mph - N/A   Clear
6:15 PM 87.3 °F 88.0 °F 62.6 °F 44% 29.79 in 10.0 mi NE 9.2 mph - N/A   Clear
6:35 PM 85.6 °F 86.3 °F 62.6 °F 46% 29.79 in 10.0 mi North 10.4 mph - N/A   Clear
6:55 PM 84.6 °F 85.4 °F 62.6 °F 48% 29.80 in 10.0 mi North 9.2 mph - N/A   Clear
7:15 PM 83.3 °F 84.4 °F 63.5 °F 51% 29.83 in 10.0 mi North 10.4 mph - N/A   Clear
7:35 PM 81.9 °F 83.4 °F 64.0 °F 55% 29.85 in 10.0 mi North 13.8 mph 19.6 mph N/A   Clear
7:55 PM 78.1 °F - 63.5 °F 61% 29.87 in 10.0 mi North 16.1 mph 21.9 mph N/A   Clear
8:15 PM 77.2 °F - 63.1 °F 62% 29.87 in 10.0 mi North 12.7 mph 20.7 mph N/A   Scattered Clouds
8:35 PM 76.1 °F - 63.0 °F 64% 29.88 in 10.0 mi NNE 16.1 mph 23.0 mph N/A   Mostly Cloudy
8:55 PM 75.0 °F - 62.8 °F 66% 29.87 in 10.0 mi North 16.1 mph 20.7 mph N/A Thunderstorm Thunderstorm
9:15 PM 73.4 °F - 63.0 °F 70% 29.83 in 10.0 mi North 15.0 mph 27.6 mph N/A Rain Light Rain
9:35 PM 72.5 °F - 63.0 °F 72% 29.96 in 10.0 mi West 4.6 mph 23.0 mph N/A Rain , Thunderstorm Light Thunderstorms and Rain
9:55 PM 73.0 °F - 62.6 °F 70% 30.01 in 7.0 mi South 13.8 mph - 0.07 in Rain , Thunderstorm Heavy Thunderstorms and Rain
10:15 PM 68.0 °F - 62.8 °F 83% 29.99 in 10.0 mi ESE 3.5 mph - N/A Rain , Thunderstorm Light Thunderstorms and Rain
10:35 PM 68.5 °F - 58.8 °F 71% 29.94 in 10.0 mi North 9.2 mph - 0.01 in Rain , Thunderstorm Light Thunderstorms and Rain
10:55 PM 67.8 °F - 59.4 °F 74% 29.88 in 10.0 mi ENE 13.8 mph 20.7 mph 0.01 in Rain , Thunderstorm Light Thunderstorms and Rain
11:15 PM 68.9 °F - 60.6 °F 75% 29.91 in 10.0 mi Calm Calm - N/A   Light Drizzle
11:35 PM 69.1 °F - 61.7 °F 77% 29.92 in 10.0 mi ENE 16.1 mph 24.2 mph N/A Rain , Thunderstorm Light Thunderstorms and Rain
11:55 PM 68.0 °F - 61.3 °F 79% 29.93 in 10.0 mi NE 21.9 mph 33.4 mph N/A Rain , Thunderstorm Light Thunderstorms and Rain